Time,TemperatureF,DewpointF,PressureIn,WindDirection,WindDirectionDegrees,WindSpeedMPH,WindSpeedGustMPH,Humidity,HourlyPrecipIn,Conditions,Clouds,dailyrainin,SoftwareType,DateUTC
2013-03-10 00:02:00,40.0,22.0,-100.00,East,100,3.0,7.0,48,-99.99,,,-99.99,,2013-03-10 05:02:00,
2013-03-10 00:11:00,40.0,28.0,-100.00,ENE,75,3.0,6.0,62,-99.99,,,-99.99,,2013-03-10 05:11:00,
2013-03-10 00:22:00,40.0,28.0,-100.00,ENE,75,3.0,6.0,62,-99.99,,,-99.99,,2013-03-10 05:22:00,
2013-03-10 00:32:00,40.0,30.0,-100.00,East,85,3.0,5.0,69,-99.99,,,-99.99,,2013-03-10 05:32:00,
2013-03-10 00:42:00,38.0,30.0,-100.00,SE,130,2.0,4.0,73,-99.99,,,-99.99,,2013-03-10 05:42:00,
2013-03-10 00:52:00,38.0,30.0,-100.00,SE,130,2.0,4.0,73,-99.99,,,-99.99,,2013-03-10 05:52:00,
2013-03-10 01:02:00,37.0,31.0,-100.00,ESE,120,3.0,5.0,76,-99.99,,,-99.99,,2013-03-10 06:02:00,
2013-03-10 01:11:00,37.0,31.0,-100.00,SE,130,2.0,3.0,80,-99.99,,,-99.99,,2013-03-10 06:11:00,
2013-03-10 01:22:00,37.0,31.0,-100.00,SE,130,2.0,3.0,80,-99.99,,,-99.99,,2013-03-10 06:22:00,
2013-03-10 01:32:00,36.0,32.0,-100.00,East,95,2.0,4.0,83,-99.99,,,-99.99,,2013-03-10 06:32:00,
2013-03-10 01:42:00,36.0,32.0,-100.00,ESE,120,2.0,4.0,85,-99.99,,,-99.99,,2013-03-10 06:42:00,
2013-03-10 01:52:00,36.0,33.0,-100.00,East,90,3.0,5.0,88,-99.99,,,-99.99,,2013-03-10 06:52:00,
2013-03-10 03:02:00,36.0,33.0,-100.00,East,90,3.0,5.0,88,-99.99,,,-99.99,,2013-03-10 07:02:00,
2013-03-10 03:11:00,37.0,34.0,-100.00,ESE,105,2.0,5.0,89,-99.99,,,-99.99,,2013-03-10 07:11:00,
2013-03-10 03:21:00,37.0,34.0,-100.00,ESE,105,2.0,5.0,89,-99.99,,,-99.99,,2013-03-10 07:21:00,
2013-03-10 03:32:00,36.0,34.0,-100.00,East,80,2.0,4.0,90,-99.99,,,-99.99,,2013-03-10 07:32:00,
2013-03-10 03:42:00,36.0,33.0,-100.00,East,100,1.0,6.0,90,-99.99,,,-99.99,,2013-03-10 07:42:00,
2013-03-10 03:52:00,36.0,33.0,-100.00,ESE,105,2.0,4.0,91,-99.99,,,-99.99,,2013-03-10 07:52:00,
2013-03-10 04:02:00,36.0,33.0,-100.00,ESE,105,2.0,4.0,91,-99.99,,,-99.99,,2013-03-10 08:02:00,
2013-03-10 04:12:00,36.0,34.0,-100.00,East,95,2.0,4.0,92,-99.99,,,-99.99,,2013-03-10 08:12:00,
2013-03-10 04:21:00,36.0,34.0,-100.00,East,95,2.0,4.0,92,-99.99,,,-99.99,,2013-03-10 08:21:00,
2013-03-10 04:32:00,35.0,33.0,-100.00,East,85,2.0,4.0,92,-99.99,,,-99.99,,2013-03-10 08:32:00,
2013-03-10 04:42:00,35.0,33.0,-100.00,North,5,0.0,2.0,92,-99.99,,,-99.99,,2013-03-10 08:42:00,
2013-03-10 04:51:00,35.0,33.0,-100.00,North,5,0.0,2.0,92,-99.99,,,-99.99,,2013-03-10 08:51:00,
2013-03-10 05:11:00,34.0,32.0,-100.00,NNE,30,2.0,2.0,93,-99.99,,,-99.99,,2013-03-10 09:11:00,
2013-03-10 05:21:00,34.0,32.0,-100.00,NNE,30,2.0,2.0,93,-99.99,,,-99.99,,2013-03-10 09:21:00,
2013-03-10 05:32:00,33.0,32.0,-100.00,NE,50,1.0,2.0,93,-99.99,,,-99.99,,2013-03-10 09:32:00,
2013-03-10 05:42:00,33.0,31.0,-100.00,ENE,60,2.0,3.0,94,-99.99,,,-99.99,,2013-03-10 09:42:00,
2013-03-10 05:51:00,33.0,31.0,-100.00,ENE,60,2.0,3.0,94,-99.99,,,-99.99,,2013-03-10 09:51:00,
2013-03-10 06:02:00,33.0,32.0,-100.00,ENE,60,2.0,4.0,94,-99.99,,,-99.99,,2013-03-10 10:02:00,
2013-03-10 06:11:00,33.0,32.0,-100.00,NNE,30,2.0,3.0,94,-99.99,,,-99.99,,2013-03-10 10:11:00,
2013-03-10 06:22:00,33.0,32.0,-100.00,NNE,30,2.0,3.0,94,-99.99,,,-99.99,,2013-03-10 10:22:00,
2013-03-10 06:32:00,33.0,32.0,-100.00,NE,35,2.0,4.0,94,-99.99,,,-99.99,,2013-03-10 10:32:00,
2013-03-10 06:42:00,33.0,32.0,-100.00,ENE,60,2.0,4.0,95,-99.99,,,-99.99,,2013-03-10 10:42:00,
2013-03-10 06:52:00,33.0,32.0,-100.00,ENE,60,2.0,4.0,95,-99.99,,,-99.99,,2013-03-10 10:52:00,
2013-03-10 07:02:00,33.0,32.0,-100.00,East,80,3.0,4.0,95,-99.99,,,-99.99,,2013-03-10 11:02:00,
2013-03-10 07:12:00,33.0,32.0,-100.00,ENE,65,2.0,3.0,95,-99.99,,,-99.99,,2013-03-10 11:12:00,
2013-03-10 07:21:00,33.0,32.0,-100.00,ENE,65,2.0,3.0,95,-99.99,,,-99.99,,2013-03-10 11:21:00,
2013-03-10 07:32:00,33.0,31.0,-100.00,ENE,70,1.0,3.0,95,-99.99,,,-99.99,,2013-03-10 11:32:00,
2013-03-10 07:42:00,33.0,31.0,-100.00,North,355,1.0,2.0,95,-99.99,,,-99.99,,2013-03-10 11:42:00,
2013-03-10 07:52:00,33.0,31.0,-100.00,North,355,1.0,2.0,95,-99.99,,,-99.99,,2013-03-10 11:52:00,
2013-03-10 08:02:00,32.0,31.0,-100.00,ENE,70,2.0,3.0,95,-99.99,,,-99.99,,2013-03-10 12:02:00,
2013-03-10 08:11:00,32.0,31.0,-100.00,ENE,65,2.0,3.0,95,-99.99,,,-99.99,,2013-03-10 12:11:00,
2013-03-10 08:21:00,32.0,31.0,-100.00,ENE,65,2.0,3.0,95,-99.99,,,-99.99,,2013-03-10 12:21:00,
2013-03-10 08:32:00,33.0,31.0,-100.00,ENE,75,2.0,4.0,95,-99.99,,,-99.99,,2013-03-10 12:32:00,
2013-03-10 08:42:00,34.0,33.0,-100.00,East,80,4.0,6.0,95,-99.99,,,-99.99,,2013-03-10 12:42:00,
2013-03-10 08:51:00,35.0,33.0,-100.00,East,80,4.0,8.0,95,-99.99,,,-99.99,,2013-03-10 12:51:00,
2013-03-10 09:01:00,35.0,33.0,-100.00,East,80,4.0,8.0,95,-99.99,,,-99.99,,2013-03-10 13:01:00,
2013-03-10 09:11:00,36.0,34.0,-100.00,ESE,110,5.0,8.0,94,-99.99,,,-99.99,,2013-03-10 13:11:00,
2013-03-10 09:21:00,36.0,34.0,-100.00,ESE,110,5.0,8.0,94,-99.99,,,-99.99,,2013-03-10 13:21:00,
2013-03-10 09:32:00,36.0,32.0,-100.00,East,80,4.0,8.0,85,-99.99,,,-99.99,,2013-03-10 13:32:00,
2013-03-10 09:42:00,37.0,30.0,-100.00,ENE,75,8.0,11.0,76,-99.99,,,-99.99,,2013-03-10 13:42:00,
2013-03-10 09:52:00,37.0,30.0,-100.00,ENE,75,8.0,11.0,76,-99.99,,,-99.99,,2013-03-10 13:52:00,
2013-03-10 10:12:00,41.0,31.0,-100.00,SE,125,4.0,13.0,67,-99.99,,,-99.99,,2013-03-10 14:12:00,
2013-03-10 10:22:00,41.0,31.0,-100.00,SE,125,4.0,13.0,67,-99.99,,,-99.99,,2013-03-10 14:22:00,
2013-03-10 10:32:00,41.0,30.0,-100.00,ESE,110,5.0,14.0,65,-99.99,,,-99.99,,2013-03-10 14:32:00,
2013-03-10 10:42:00,42.0,31.0,-100.00,SE,145,7.0,14.0,64,-99.99,,,-99.99,,2013-03-10 14:42:00,
2013-03-10 10:51:00,42.0,31.0,-100.00,SE,145,7.0,14.0,64,-99.99,,,-99.99,,2013-03-10 14:51:00,
2013-03-10 11:11:00,42.0,31.0,-100.00,East,95,6.0,12.0,63,-99.99,,,-99.99,,2013-03-10 15:11:00,
2013-03-10 11:21:00,42.0,31.0,-100.00,East,95,6.0,12.0,63,-99.99,,,-99.99,,2013-03-10 15:21:00,
2013-03-10 11:32:00,43.0,31.0,-100.00,SSE,150,7.0,14.0,63,-99.99,,,-99.99,,2013-03-10 15:32:00,
2013-03-10 11:42:00,42.0,31.0,-100.00,ESE,120,8.0,14.0,65,-99.99,,,-99.99,,2013-03-10 15:42:00,
2013-03-10 11:52:00,42.0,31.0,-100.00,ESE,120,8.0,14.0,65,-99.99,,,-99.99,,2013-03-10 15:52:00,
2013-03-10 12:12:00,42.0,32.0,-100.00,ESE,110,7.0,14.0,66,-99.99,,,-99.99,,2013-03-10 16:12:00,
2013-03-10 12:21:00,42.0,32.0,-100.00,ESE,110,7.0,14.0,66,-99.99,,,-99.99,,2013-03-10 16:21:00,
2013-03-10 14:12:00,44.0,32.0,-100.00,ENE,65,8.0,11.0,62,-99.99,,,-99.99,,2013-03-10 18:12:00,
2013-03-10 14:22:00,44.0,32.0,-100.00,ENE,65,8.0,11.0,62,-99.99,,,-99.99,,2013-03-10 18:22:00,
2013-03-10 14:42:00,46.0,33.0,-100.00,ESE,105,5.0,11.0,59,-99.99,,,-99.99,,2013-03-10 18:42:00,
2013-03-10 14:52:00,46.0,33.0,-100.00,ESE,105,5.0,11.0,59,-99.99,,,-99.99,,2013-03-10 18:52:00,
2013-03-10 15:02:00,46.0,32.0,-100.00,East,100,7.0,11.0,58,-99.99,,,-99.99,,2013-03-10 19:02:00,
2013-03-10 15:11:00,47.0,33.0,-100.00,East,80,4.0,9.0,57,-99.99,,,-99.99,,2013-03-10 19:11:00,
2013-03-10 15:22:00,47.0,33.0,-100.00,East,80,4.0,9.0,57,-99.99,,,-99.99,,2013-03-10 19:22:00,
2013-03-10 15:32:00,46.0,32.0,-100.00,ESE,120,6.0,10.0,57,-99.99,,,-99.99,,2013-03-10 19:32:00,
2013-03-10 15:42:00,47.0,32.0,-100.00,East,80,6.0,12.0,56,-99.99,,,-99.99,,2013-03-10 19:42:00,
2013-03-10 15:52:00,47.0,32.0,-100.00,East,80,6.0,12.0,56,-99.99,,,-99.99,,2013-03-10 19:52:00,
2013-03-10 16:13:00,46.0,32.0,-100.00,East,90,7.0,14.0,58,-99.99,,,-99.99,,2013-03-10 20:13:00,
2013-03-10 16:22:00,46.0,32.0,-100.00,East,90,7.0,14.0,58,-99.99,,,-99.99,,2013-03-10 20:22:00,
2013-03-10 16:32:00,46.0,32.0,-100.00,ESE,105,7.0,14.0,58,-99.99,,,-99.99,,2013-03-10 20:32:00,
2013-03-10 16:43:00,45.0,32.0,-100.00,ESE,105,8.0,15.0,60,-99.99,,,-99.99,,2013-03-10 20:43:00,
2013-03-10 16:52:00,45.0,32.0,-100.00,ESE,105,8.0,15.0,60,-99.99,,,-99.99,,2013-03-10 20:52:00,
2013-03-10 17:12:00,44.0,32.0,-100.00,East,100,11.0,18.0,63,-99.99,,,-99.99,,2013-03-10 21:12:00,
2013-03-10 17:23:00,44.0,32.0,-100.00,East,100,11.0,18.0,63,-99.99,,,-99.99,,2013-03-10 21:23:00,
2013-03-10 17:33:00,44.0,32.0,-100.00,East,95,9.0,15.0,63,-99.99,,,-99.99,,2013-03-10 21:33:00,
2013-03-10 17:42:00,44.0,33.0,-100.00,ESE,120,7.0,15.0,63,-99.99,,,-99.99,,2013-03-10 21:42:00,
2013-03-10 17:52:00,44.0,33.0,-100.00,ESE,120,7.0,15.0,63,-99.99,,,-99.99,,2013-03-10 21:52:00,
2013-03-10 18:03:00,44.0,32.0,-100.00,ESE,105,8.0,15.0,64,-99.99,,,-99.99,,2013-03-10 22:03:00,
2013-03-10 18:12:00,44.0,32.0,-100.00,ESE,115,7.0,12.0,64,-99.99,,,-99.99,,2013-03-10 22:12:00,
2013-03-10 18:22:00,44.0,32.0,-100.00,ESE,115,7.0,12.0,64,-99.99,,,-99.99,,2013-03-10 22:22:00,
2013-03-10 18:32:00,42.0,32.0,-100.00,ESE,115,9.0,15.0,67,-99.99,,,-99.99,,2013-03-10 22:32:00,
2013-03-10 18:43:00,42.0,32.0,-100.00,ESE,105,9.0,15.0,68,-99.99,,,-99.99,,2013-03-10 22:43:00,
2013-03-10 18:52:00,42.0,32.0,-100.00,ESE,105,9.0,15.0,68,-99.99,,,-99.99,,2013-03-10 22:52:00,
2013-03-10 19:03:00,42.0,32.0,-100.00,ESE,110,6.0,14.0,69,-99.99,,,-99.99,,2013-03-10 23:03:00,
2013-03-10 19:12:00,41.0,32.0,-100.00,ESE,115,5.0,13.0,70,-99.99,,,-99.99,,2013-03-10 23:12:00,
2013-03-10 19:23:00,41.0,32.0,-100.00,ESE,115,5.0,13.0,70,-99.99,,,-99.99,,2013-03-10 23:23:00,
2013-03-10 19:33:00,40.0,32.0,-100.00,SSE,150,2.0,9.0,71,-99.99,,,-99.99,,2013-03-10 23:33:00,
2013-03-10 19:43:00,40.0,32.0,-100.00,SE,145,5.0,12.0,72,-99.99,,,-99.99,,2013-03-10 23:43:00,
2013-03-10 19:52:00,40.0,32.0,-100.00,SE,145,5.0,12.0,72,-99.99,,,-99.99,,2013-03-10 23:52:00,
2013-03-10 20:03:00,40.0,32.0,-100.00,SSE,150,3.0,12.0,74,-99.99,,,-99.99,,2013-03-11 00:03:00,
2013-03-10 20:13:00,39.0,32.0,-100.00,SE,130,3.0,10.0,76,-99.99,,,-99.99,,2013-03-11 00:13:00,
2013-03-10 20:23:00,39.0,32.0,-100.00,SE,130,3.0,10.0,76,-99.99,,,-99.99,,2013-03-11 00:23:00,
2013-03-10 20:33:00,39.0,32.0,-100.00,SSE,155,6.0,12.0,77,-99.99,,,-99.99,,2013-03-11 00:33:00,
2013-03-10 20:43:00,38.0,33.0,-100.00,SE,140,5.0,12.0,79,-99.99,,,-99.99,,2013-03-11 00:43:00,
2013-03-10 20:52:00,38.0,33.0,-100.00,SE,140,5.0,12.0,79,-99.99,,,-99.99,,2013-03-11 00:52:00,
2013-03-10 21:03:00,38.0,32.0,-100.00,SE,145,4.0,8.0,80,-99.99,,,-99.99,,2013-03-11 01:03:00,
2013-03-10 21:13:00,38.0,32.0,-100.00,SSE,150,3.0,7.0,81,-99.99,,,-99.99,,2013-03-11 01:13:00,
2013-03-10 21:23:00,38.0,32.0,-100.00,SSE,150,3.0,7.0,81,-99.99,,,-99.99,,2013-03-11 01:23:00,
2013-03-10 21:32:00,37.0,32.0,-100.00,South,185,4.0,6.0,82,-99.99,,,-99.99,,2013-03-11 01:32:00,
2013-03-10 21:43:00,37.0,33.0,-100.00,SSE,150,1.0,9.0,84,-99.99,,,-99.99,,2013-03-11 01:43:00,
2013-03-10 21:53:00,37.0,33.0,-100.00,SSE,150,1.0,9.0,84,-99.99,,,-99.99,,2013-03-11 01:53:00,
2013-03-10 22:03:00,38.0,33.0,-100.00,WSW,240,3.0,6.0,84,-99.99,,,-99.99,,2013-03-11 02:03:00,
2013-03-10 22:13:00,38.0,33.0,-100.00,SSW,205,3.0,6.0,85,-99.99,,,-99.99,,2013-03-11 02:13:00,
2013-03-10 22:23:00,38.0,33.0,-100.00,SSW,205,3.0,6.0,85,-99.99,,,-99.99,,2013-03-11 02:23:00,
2013-03-10 22:32:00,38.0,34.0,-100.00,South,185,3.0,6.0,85,-99.99,,,-99.99,,2013-03-11 02:32:00,
2013-03-10 22:42:00,38.0,34.0,-100.00,SE,140,3.0,6.0,85,-99.99,,,-99.99,,2013-03-11 02:42:00,
2013-03-10 22:52:00,38.0,34.0,-100.00,SE,140,3.0,6.0,85,-99.99,,,-99.99,,2013-03-11 02:52:00,
2013-03-10 23:02:00,38.0,34.0,-100.00,South,170,3.0,7.0,86,-99.99,,,-99.99,,2013-03-11 03:02:00,
2013-03-10 23:12:00,37.0,33.0,-100.00,South,180,2.0,6.0,86,-99.99,,,-99.99,,2013-03-11 03:12:00,
2013-03-10 23:22:00,37.0,33.0,-100.00,South,180,2.0,6.0,86,-99.99,,,-99.99,,2013-03-11 03:22:00,
2013-03-10 23:32:00,37.0,33.0,-100.00,SW,225,2.0,5.0,87,-99.99,,,-99.99,,2013-03-11 03:32:00,
2013-03-10 23:42:00,36.0,33.0,-100.00,SW,225,1.0,3.0,88,-99.99,,,-99.99,,2013-03-11 03:42:00,
2013-03-10 23:52:00,36.0,33.0,-100.00,SW,225,1.0,3.0,88,-99.99,,,-99.99,,2013-03-11 03:52:00,